Location: Madrid
(40.4167°N, 3.7036°W)
Time: 08:33:14
(UTC+00:00)

ISS - Pass Details

Date: 15 May 2025
Orbit: 416 x 420 km, 51.6° (Epoch: 12 May)

Event Time Altitude Azimuth Distance (km) Brightness Sun altitude
Rises 20:09:58 0° 274° (W) 2,356 1.2 -8.3°
Reaches altitude 10° 20:12:29 10° 293° (WNW) 1,494 0.6 -8.7°
Maximum altitude 20:14:58 19° 341° (NNW) 1,063 -0.9 -9.1°
Drops below altitude 10° 20:17:28 10° 29° (NNE) 1,496 -0.9 -9.5°
Sets 20:20:00 0° 48° (NE) 2,361 -0.1 -9.9°
